Date String (YYYY-MM-DD hh:mm:ss) UTC,Instrument flags,absolute air pressure of the measurement (hPa),sample flow rate (lpm),inlet stack bypass flow (lpm),air temperature of the measurement (°C),ambient temperature measured by the external sensor (°C),aerosol sample conditioner tube jacket temperature (°C),OPC LED temperature (°C),internal box temperature (°C),relative humidity of the measurement (%),span deviation,mass concentration of particles derived from Lorenz-Mie calculation of OPC scattering (μg/m³),mass concentration of particles derived from Lorenz-Mie calculation of OPC scattering (μg/m³),mass concentration of particles derived from Lorenz-Mie calculation of OPC scattering (μg/m³)
DateTimeUTC,F1_M11,P_M11,Q1_M11,Q2_M11,T1_M11,T2_M11,T3_M11,T4_M11,T5_M11,U1_M11,ZSPAN_M11,X0_M11,X2_M11,X1_M11
2024-01-27 02:00:00,SystemResetWarning,0836.2,5.00,000.00,023.3,022.2,000.0,031.6,024.7,14.7,0000.0,0007.61,0003.26,0003.03
2024-01-27 02:01:00,SystemResetWarning,0836.2,5.00,000.00,023.3,022.2,000.0,031.6,024.8,14.9,0000.0,0007.66,0003.29,0003.06
2024-01-27 02:02:00,SystemResetWarning,0836.2,5.00,000.00,023.3,022.2,000.0,031.6,024.7,15.0,0000.0,0007.60,0003.33,0003.09
2024-01-27 02:03:00,SystemResetWarning,0836.2,5.00,000.00,023.3,022.2,000.0,031.6,024.7,15.0,0000.0,0005.67,0003.33,0003.10
2024-01-27 02:04:00,SystemResetWarning,0836.2,5.00,000.00,023.3,022.2,000.0,031.6,024.8,15.1,0000.0,0004.69,0003.34,0003.10
2024-01-27 02:05:00,SystemResetWarning,0836.2,5.00,000.00,023.3,022.2,000.0,031.6,024.7,15.1,0000.0,0004.64,0003.35,0003.12
2024-01-27 02:06:00,SystemResetWarning,0836.2,5.00,000.00,023.3,022.2,000.0,031.6,024.7,15.1,0000.0,0004.47,0003.36,0003.13
2024-01-27 02:07:00,SystemResetWarning,0836.2,5.00,000.00,023.3,022.2,000.0,031.6,024.7,15.2,0000.0,0004.33,0003.35,0003.13
2024-01-27 02:08:00,SystemResetWarning,0836.2,5.00,000.00,023.3,022.2,000.0,031.6,024.7,15.3,0000.0,0004.33,0003.35,0003.14
2024-01-27 02:09:00,SystemResetWarning,0836.2,5.00,000.00,023.3,022.2,000.0,031.6,024.7,15.5,0000.0,0004.38,0003.36,0003.14
2024-01-27 02:10:00,SystemResetWarning,0836.2,4.99,000.00,023.3,022.2,000.0,031.6,024.7,15.6,0000.0,0004.40,0003.37,0003.14
2024-01-27 02:11:00,SystemResetWarning,0836.2,5.00,000.00,023.3,022.2,000.0,031.6,024.7,15.7,0000.0,0004.34,0003.36,0003.13
2024-01-27 02:12:00,SystemResetWarning,0836.2,4.99,000.00,023.3,022.2,000.0,031.6,024.7,15.8,0000.0,0004.36,0003.36,0003.13
2024-01-27 02:13:00,SystemResetWarning,0836.2,5.00,000.00,023.3,022.2,000.0,031.6,024.7,15.8,0000.0,0004.28,0003.35,0003.13
2024-01-27 02:14:00,SystemResetWarning,0836.2,5.00,000.00,023.3,022.2,000.0,031.6,024.6,15.9,0000.0,0004.33,0003.37,0003.13
2024-01-27 02:15:00,SystemResetWarning,0836.2,5.01,000.00,023.3,022.2,000.0,031.6,024.6,16.0,0000.0,0004.27,0003.36,0003.14
2024-01-27 02:16:00,SystemResetWarning,0836.2,5.00,000.00,023.3,022.2,000.0,031.6,024.6,16.1,0000.0,0004.26,0003.36,0003.14
2024-01-27 02:17:00,SystemResetWarning,0836.2,5.00,000.00,023.3,022.2,000.0,031.6,024.7,16.1,0000.0,0004.91,0003.35,0003.14
2024-01-27 02:18:00,SystemResetWarning,0836.2,5.00,000.00,023.3,022.2,000.0,031.6,024.6,16.2,0000.0,0005.22,0003.34,0003.13
2024-01-27 02:19:00,SystemResetWarning,0836.2,5.00,000.00,023.2,022.2,000.0,031.6,024.6,16.3,0000.0,0005.15,0003.32,0003.12
2024-01-27 02:20:00,SystemResetWarning,0836.2,5.00,000.00,023.2,022.2,000.0,031.6,024.6,16.2,0000.0,0005.04,0003.30,0003.12
2024-01-27 02:21:00,SystemResetWarning,0836.2,5.00,000.00,023.2,022.2,000.0,031.6,024.6,16.2,0000.0,0004.99,0003.29,0003.12
2024-01-27 02:22:00,SystemResetWarning,0836.2,5.00,000.00,023.2,022.2,000.0,031.6,024.6,16.2,0000.0,0004.99,0003.28,0003.11
2024-01-27 02:23:00,SystemResetWarning,0836.2,5.00,000.00,023.2,022.2,000.0,031.6,024.6,16.1,0000.0,0005.14,0003.30,0003.12
2024-01-27 02:24:00,SystemResetWarning,0836.2,5.00,000.00,023.2,022.2,000.0,031.6,024.6,15.9,0000.0,0005.17,0003.30,0003.11
2024-01-27 02:25:00,SystemResetWarning,0836.2,5.00,000.00,023.2,022.2,000.0,031.6,024.6,15.9,0000.0,0005.76,0003.30,0003.11
2024-01-27 02:26:00,SystemResetWarning,0836.2,5.00,000.00,023.2,022.2,000.0,031.5,024.6,15.9,0000.0,0006.89,0003.31,0003.11
2024-01-27 02:27:00,SystemResetWarning,0836.2,5.00,000.00,023.2,022.2,000.0,031.6,024.6,15.9,0000.0,0007.63,0003.31,0003.11
2024-01-27 02:28:00,SystemResetWarning,0836.2,5.00,000.00,023.2,022.2,000.0,031.5,024.6,15.9,0000.0,0007.14,0003.30,0003.11
2024-01-27 02:29:00,SystemResetWarning,0836.2,4.99,000.00,023.2,022.2,000.0,031.5,024.6,15.9,0000.0,0006.92,0003.31,0003.13
2024-01-27 02:30:00,SystemResetWarning,0836.2,5.00,000.00,023.2,022.2,000.0,031.5,024.6,16.0,0000.0,0007.03,0003.34,0003.14
2024-01-27 02:31:00,SystemResetWarning,0836.2,4.99,000.00,023.2,022.2,000.0,031.5,024.6,15.9,0000.0,0007.14,0003.35,0003.13
2024-01-27 02:32:00,SystemResetWarning,0836.2,5.01,000.00,023.2,022.2,000.0,031.5,024.6,15.8,0000.0,0007.19,0003.35,0003.13
2024-01-27 02:33:00,SystemResetWarning,0836.2,5.01,000.00,023.2,022.2,000.0,031.5,024.6,15.9,0000.0,0007.21,0003.36,0003.13
2024-01-27 02:34:00,SystemResetWarning,0836.2,5.00,000.00,023.2,022.2,000.0,031.5,024.6,15.9,0000.0,0007.03,0003.33,0003.12
2024-01-27 02:35:00,SystemResetWarning,0836.2,4.99,000.00,023.2,022.2,000.0,031.5,024.6,15.9,0000.0,0006.99,0003.32,0003.11
2024-01-27 02:36:00,SystemResetWarning,0836.2,4.99,000.00,023.2,022.2,000.0,031.5,024.6,15.9,0000.0,0006.41,0003.29,0003.09
2024-01-27 02:37:00,SystemResetWarning,0836.2,5.00,000.00,023.2,022.2,000.0,031.5,024.6,15.9,0000.0,0005.03,0003.25,0003.05
2024-01-27 02:38:00,SystemResetWarning,0836.2,5.00,000.00,023.2,022.2,000.0,031.5,024.6,15.9,0000.0,0004.04,0003.23,0003.02
2024-01-27 02:39:00,SystemResetWarning,0836.2,5.00,000.00,023.2,022.2,000.0,031.5,024.6,15.9,0000.0,0004.00,0003.22,0002.99
2024-01-27 02:40:00,SystemResetWarning,0836.2,5.00,000.00,023.2,022.2,000.0,031.5,024.6,15.7,0000.0,0003.99,0003.20,0002.95
2024-01-27 02:41:00,SystemResetWarning,0836.3,5.00,000.00,023.2,022.2,000.0,031.5,024.6,15.7,0000.0,0004.07,0003.17,0002.93
2024-01-27 02:42:00,SystemResetWarning,0836.2,5.00,000.00,023.2,022.1,000.0,031.5,024.6,15.8,0000.0,0004.38,0003.16,0002.92
2024-01-27 02:43:00,SystemResetWarning,0836.3,5.00,000.00,023.2,022.1,000.0,031.5,024.6,15.8,0000.0,0004.24,0003.13,0002.89
2024-01-27 02:44:00,SystemResetWarning,0836.3,5.00,000.00,023.2,022.1,000.0,031.5,024.6,15.8,0000.0,0004.14,0003.09,0002.88
2024-01-27 02:45:00,SystemResetWarning,0836.2,5.00,000.00,023.2,022.1,000.0,031.5,024.6,15.9,0000.0,0004.17,0003.10,0002.87
2024-01-27 02:46:00,SystemResetWarning,0836.2,5.00,000.00,023.2,022.1,000.0,031.5,024.6,15.8,0000.0,0004.14,0003.07,0002.87
2024-01-27 02:47:00,SystemResetWarning,0836.3,5.00,000.00,023.2,022.1,000.0,031.5,024.6,15.8,0000.0,0004.17,0003.08,0002.86
2024-01-27 02:48:00,SystemResetWarning,0836.3,5.00,000.00,023.2,022.1,000.0,031.5,024.6,15.7,0000.0,0004.25,0003.10,0002.89
2024-01-27 02:49:00,SystemResetWarning,0836.3,5.00,000.00,023.1,022.1,000.0,031.5,024.6,15.7,0000.0,0004.33,0003.11,0002.90
2024-01-27 02:50:00,SystemResetWarning,0836.2,5.00,000.00,023.1,022.1,000.0,031.5,024.5,15.7,0000.0,0004.31,0003.11,0002.89
2024-01-27 02:51:00,SystemResetWarning,0836.3,5.00,000.00,023.1,022.1,000.0,031.5,024.6,15.7,0000.0,0004.28,0003.11,0002.89
2024-01-27 02:52:00,SystemResetWarning,0836.2,4.99,000.00,023.1,022.0,000.0,031.5,024.6,15.7,0000.0,0004.24,0003.13,0002.89
2024-01-27 02:53:00,SystemResetWarning,0836.3,5.00,000.00,023.1,022.1,000.0,031.5,024.5,15.7,0000.0,0003.95,0003.15,0002.91
2024-01-27 02:54:00,SystemResetWarning,0836.2,5.00,000.00,023.1,022.1,000.0,031.5,024.5,15.7,0000.0,0004.10,0003.17,0002.94
2024-01-27 02:55:00,SystemResetWarning,0836.2,5.00,000.00,023.1,022.1,000.0,031.4,024.5,15.7,0000.0,0004.10,0003.17,0002.94
2024-01-27 02:56:00,SystemResetWarning,0836.2,5.00,000.00,023.1,022.1,000.0,031.4,024.5,15.6,0000.0,0004.08,0003.16,0002.92
2024-01-27 02:57:00,SystemResetWarning,0836.3,5.00,000.00,023.1,022.1,000.0,031.4,024.5,15.6,0000.0,0004.08,0003.16,0002.93
2024-01-27 02:58:00,SystemResetWarning,0836.2,5.00,000.00,023.1,022.0,000.0,031.4,024.5,15.6,0000.0,0004.08,0003.16,0002.92
2024-01-27 02:59:00,SystemResetWarning,0836.3,5.01,000.00,023.1,022.0,000.0,031.4,024.5,15.7,0000.0,0004.05,0003.14,0002.89
